H1 CPF 2 NER 2025 11 1 9 305 01 glonass142 H2 2001801 9142 45358 2025 11 1 0 0 0 2025 11 4 23 45 0 900 1 1 0 0 0 1 H9 10 0 60980 0.00000 0 -11323032.019 13265881.931 -18578305.694 10 0 60980 900.00000 0 -10915870.885 10895687.609 -20284766.518 10 0 60980 1800.00000 0 -10668024.177 8316792.494 -21596072.520 10 0 60980 2700.00000 0 -10606640.736 5591144.855 -22486718.516 10 0 60980 3600.00000 0 -10747569.198 2785745.219 -22939417.888 10 0 60980 4500.00000 0 -11094621.856 -29914.482 -22945436.282 10 0 60980 5400.00000 0 -11639365.652 -2786510.353 -22504756.114 10 0 60980 6300.00000 0 -12361448.788 -5417533.710 -21626069.176 10 0 60980 7200.00000 0 -13229448.704 -7861815.818 -20326598.107 10 0 60980 8100.00000 0 -14202204.984 -10065825.533 -18631750.854 10 0 60980 9000.00000 0 -15230580.314 -11985644.978 -16574615.474 10 0 60980 9900.00000 0 -16259574.498 -13588542.077 -14195305.790 10 0 60980 10800.00000 0 -17230701.789 -14854075.978 -11540171.214 10 0 60980 11700.00000 0 -18084530.760 -15774691.078 -8660886.736 10 0 60980 12600.00000 0 -18763279.244 -16355776.962 -5613441.337 10 0 60980 13500.00000 0 -19213354.792 -16615193.989 -2457045.058 10 0 60980 14400.00000 0 -19387733.527 -16582286.691 747023.627 10 0 60980 15300.00000 0 -19248077.377 -16296428.455 3936607.342 10 0 60980 16200.00000 0 -18766500.828 -15805160.468 7049872.982 10 0 60980 17100.00000 0 -17926913.279 -15162004.566 10026505.260 10 0 60980 18000.00000 0 -16725880.935 -14424042.900 12808867.696 10 0 60980 18900.00000 0 -15172972.368 -13649366.689 15343109.175 10 0 60980 19800.00000 0 -13290573.291 -12894501.271 17580195.440 10 0 60980 20700.00000 0 -11113178.059 -12211915.265 19476846.585 10 0 60980 21600.00000 0 -8686186.888 -11647717.731 20996363.593 10 0 60980 22500.00000 0 -6064257.879 -11239639.140 22109329.128 10 0 60980 23400.00000 0 -3309281.076 -11015380.023 22794170.119 10 0 60980 24300.00000 0 -488057.068 -10991395.886 23037572.149 10 0 60980 25200.00000 0 2330225.471 -11172168.997 22834738.171 10 0 60980 26100.00000 0 5076610.604 -11549997.654 22189486.683 10 0 60980 27000.00000 0 7684987.567 -12105312.305 21114187.130 10 0 60980 27900.00000 0 10094588.212 -12807506.216 19629533.009 10 0 60980 28800.00000 0 12252267.127 -13616247.108 17764155.936 10 0 60980 29700.00000 0 14114470.716 -14483216.125 15554086.720 10 0 60980 30600.00000 0 15648813.843 -15354202.479 13042072.313 10 0 60980 31500.00000 0 16835198.445 -16171466.851 10276760.407 10 0 60980 32400.00000 0 17666427.213 -16876274.869 7311766.147 10 0 60980 33300.00000 0 18148286.271 -17411494.156 4204638.051 10 0 60980 34200.00000 0 18299092.925 -17724145.138 1015742.673 10 0 60980 35100.00000 0 18148727.093 -17767797.034 -2192910.433 10 0 60980 36000.00000 0 17737187.033 -17504706.499 -5358880.291 10 0 60980 36900.00000 0 17112730.335 -16907606.776 -8420518.245 10 0 60980 37800.00000 0 16329679.093 -15961069.801 -11318179.012 10 0 60980 38700.00000 0 15445982.709 -14662381.698 -13995394.237 10 0 60980 39600.00000 0 14520642.332 -13021892.784 -16399984.400 10 0 60980 40500.00000 0 13611106.959 -11062825.591 -18485086.212 10 0 60980 41400.00000 0 12770752.405 -8820547.610 -20210074.546 10 0 60980 42300.00000 0 12046550.753 -6341338.281 -21541360.170 10 0 60980 43200.00000 0 11477029.566 -3680701.314 -22453047.361 10 0 60980 44100.00000 0 11090607.540 -901292.619 -22927438.473 10 0 60980 45000.00000 0 10904377.039 1929449.565 -22955375.785 10 0 60980 45900.00000 0 10923384.694 4741873.405 -22536414.351 10 0 60980 46800.00000 0 11140439.873 7466773.919 -21678822.994 10 0 60980 47700.00000 0 11536458.362 10038034.294 -20399414.047 10 0 60980 48600.00000 0 12081325.786 12395138.326 -18723205.781 10 0 60980 49500.00000 0 12735243.293 14485449.869 -16682924.774 10 0 60980 50400.00000 0 13450497.677 16266165.169 -14318358.514 10 0 60980 51300.00000 0 14173580.236 17705857.884 -11675571.507 10 0 60980 52200.00000 0 14847564.081 18785553.896 -8806000.700 10 0 60980 53100.00000 0 15414638.859 19499292.800 -5765448.419 10 0 60980 54000.00000 0 15818695.394 19854154.630 -2612992.954 10 0 60980 54900.00000 0 16007850.954 19869752.819 590161.625 10 0 60980 55800.00000 0 15936808.500 19577216.696 3781873.675 10 0 60980 56700.00000 0 15568950.624 19017708.071 6900266.988 10 0 60980 57600.00000 0 14878080.168 18240535.754 9884925.295 10 0 60980 58500.00000 0 13849734.563 17300948.306 12678055.366 10 0 60980 59400.00000 0 12482018.886 16257698.391 15225596.703 10 0 60980 60300.00000 0 10785922.676 15170481.129 17478257.193 10 0 60980 61200.00000 0 8785107.051 14097353.689 19392455.632 10 0 60980 62100.00000 0 6515170.426 13092243.657 20931154.067 10 0 60980 63000.00000 0 4022422.506 12202649.688 22064565.067 10 0 60980 63900.00000 0 1362216.274 11467629.750 22770721.308 10 0 60980 64800.00000 0 -1403094.320 10916160.210 23035897.388 10 0 60980 65700.00000 0 -4206488.139 10565933.681 22854876.252 10 0 60980 66600.00000 0 -6978807.253 10422645.521 22231055.248 10 0 60980 67500.00000 0 -9651381.054 10479798.822 21176389.460 10 0 60980 68400.00000 0 -12158637.113 10719036.439 19711172.669 10 0 60980 69300.00000 0 -14440591.925 11110986.903 17863659.071 10 0 60980 70200.00000 0 -16445119.249 11616589.739 15669531.660 10 0 60980 71100.00000 0 -18129902.345 12188845.638 13171226.024 10 0 60980 72000.00000 0 -19463988.976 12774918.930 10417121.164 10 0 60980 72900.00000 0 -20428884.069 13318504.624 7460611.664 10 0 60980 73800.00000 0 -21019133.894 13762360.606 4359078.179 10 0 60980 74700.00000 0 -21242376.574 14050898.032 1172775.651 10 0 60980 75600.00000 0 -21118856.227 14132719.815 -2036339.301 10 0 60980 76500.00000 0 -20680420.660 13962998.730 -5205818.719 10 0 60980 77400.00000 0 -19969044.580 13505592.961 -8273947.023 10 0 60980 78300.00000 0 -19034940.702 12734807.707 -11180953.296 10 0 60980 79200.00000 0 -17934338.881 11636726.286 -13870187.273 10 0 60980 80100.00000 0 -16727027.754 10210052.455 -16289234.832 10 0 60980 81000.00000 0 -15473763.623 8466426.470 -18390950.088 10 0 60980 81900.00000 0 -14233656.988 6430199.867 -20134382.962 10 0 60980 82800.00000 0 -13061648.007 4137677.130 -21485583.433 10 0 60980 83700.00000 0 -12006178.169 1635855.102 -22418266.360 10 0 60980 84600.00000 0 -11107156.846 -1019287.677 -22914323.816 10 0 60980 85500.00000 0 -10394308.599 -3764880.407 -22964175.077 10 0 60981 0.00000 0 -9885970.629 -6533540.796 -22566947.878 10 0 60981 900.00000 0 -9588390.182 -9255949.317 -21730487.618 10 0 60981 1800.00000 0 -9495551.142 -11863505.854 -20471195.584 10 0 60981 2700.00000 0 -9589535.027 -14290963.052 -18813699.288 10 0 60981 3600.00000 0 -9841400.459 -16478923.238 -16790362.408 10 0 60981 4500.00000 0 -10212542.317 -18376096.850 -14440644.421 10 0 60981 5400.00000 0 -10656471.853 -19941228.792 -11810323.025 10 0 60981 6300.00000 0 -11120941.392 -21144613.538 -8950595.047 10 0 60981 7200.00000 0 -11550322.788 -21969137.111 -5917073.972 10 0 60981 8100.00000 0 -11888138.385 -22410804.121 -2768704.061 10 0 60981 9000.00000 0 -12079636.987 -22478729.613 433387.359 10 0 60981 9900.00000 0 -12074305.743 -22194597.994 3627076.783 10 0 60981 10800.00000 0 -11828211.866 -21591613.484 6750447.348 10 0 60981 11700.00000 0 -11306075.484 -20712987.697 9742984.296 10 0 60981 12600.00000 0 -10482986.506 -19610029.019 12546740.139 10 0 60981 13500.00000 0 -9345693.430 -18339914.714 15107447.468 10 0 60981 14400.00000 0 -7893410.019 -16963239.526 17375558.684 10 0 60981 15300.00000 0 -6138105.851 -15541443.312 19307193.495 10 0 60981 16200.00000 0 -4104268.122 -14134224.889 20864977.012 10 0 60981 17100.00000 0 -1828143.771 -12797049.372 22018753.449 10 0 60981 18000.00000 0 643507.713 -11578852.126 22746162.682 10 0 60981 18900.00000 0 3255100.476 -10520034.122 23033069.474 10 0 60981 19800.00000 0 5944279.334 -9650831.365 22873837.608 10 0 60981 20700.00000 0 8644264.255 -8990125.668 22271443.836 10 0 60981 21600.00000 0 11286387.110 -8544745.957 21237429.146 10 0 60981 22500.00000 0 13802717.393 -8309289.193 19791687.570 10 0 60981 23400.00000 0 16128669.570 -8266468.654 17962095.536 10 0 60981 24300.00000 0 18205485.007 -8387975.549 15783987.541 10 0 60981 25200.00000 0 19982486.079 -8635818.559 13299486.743 10 0 60981 26100.00000 0 21419008.787 -8964085.862 10556701.956 10 0 60981 27000.00000 0 22485933.117 -9321056.114 7608805.263 10 0 60981 27900.00000 0 23166746.584 -9651569.884 4513007.064 10 0 60981 28800.00000 0 23458095.636 -9899561.423 1329447.876 10 0 60981 29700.00000 0 23369800.901 -10010643.335 -1879971.763 10 0 60981 30600.00000 0 22924334.836 -9934633.876 -5052800.280 10 0 60981 31500.00000 0 22155783.158 -9627918.534 -8127258.651 10 0 60981 32400.00000 0 21108333.518 -9055544.150 -11043453.768 10 0 60981 33300.00000 0 19834355.163 -8192954.979 -13744556.770 10 0 60981 34200.00000 0 18392150.982 -7027295.185 -16177922.042 10 0 60981 35100.00000 0 16843477.381 -5558220.704 -18296123.921 10 0 60981 36000.00000 0 15250937.387 -3798184.362 -20057889.896 10 0 60981 36900.00000 0 13675357.715 -1772180.686 -21428911.328 10 0 60981 37800.00000 0 12173261.048 483040.106 -22382515.454 10 0 60981 38700.00000 0 10794540.421 2920256.836 -22900185.473 10 0 60981 39600.00000 0 9580433.802 5483507.486 -22971918.642 10 0 60981 40500.00000 0 8561883.779 8110192.617 -22596415.822 10 0 60981 41400.00000 0 7758350.704 10733464.250 -21781099.250 10 0 60981 42300.00000 0 7177128.156 13284800.463 -20541958.831 10 0 60981 43200.00000 0 6813188.124 15696658.254 -18903230.567 10 0 60981 44100.00000 0 6649560.790 17905094.132 -16896914.085 10 0 60981 45000.00000 0 6658231.161 19852243.365 -14562139.271 10 0 60981 45900.00000 0 6801512.969 21488554.954 -11944395.018 10 0 60981 46800.00000 0 7033840.225 22774689.832 -9094635.662 10 0 60981 47700.00000 0 7303899.285 23683004.028 -6068283.099 10 0 60981 48600.00000 0 7557010.186 24198556.151 -2924144.523 10 0 60981 49500.00000 0 7737655.682 24319598.541 276732.752 10 0 60981 50400.00000 0 7792050.558 24057533.161 3472246.738 10 0 60981 51300.00000 0 7670642.339 23436335.708 6600443.311 10 0 60981 52200.00000 0 7330437.810 22491473.549 9600712.529 10 0 60981 53100.00000 0 6737057.276 21268364.073 12414955.757 10 0 60981 54000.00000 0 5866430.236 19820438.894 14988701.535 10 0 60981 54900.00000 0 4706061.244 18206895.418 17272149.344 10 0 60981 55800.00000 0 3255812.759 16490229.837 19221122.060 10 0 60981 56700.00000 0 1528171.861 14733654.215 20797909.786 10 0 60981 57600.00000 0 -452011.026 12998504.723 21971989.967 10 0 60981 58500.00000 0 -2648301.549 11341748.085 22720610.926 10 0 60981 59400.00000 0 -5013947.941 9813688.959 23029228.463 10 0 60981 60300.00000 0 -7493583.757 8455972.557 22891787.689 10 0 60981 61200.00000 0 -10025298.009 7299964.662 22310844.819 10 0 60981 62100.00000 0 -12542988.831 6365575.683 21297526.345 10 0 60981 63000.00000 0 -14978904.953 5660577.262 19871325.680 10 0 60981 63900.00000 0 -17266271.186 5180439.787 18059740.139 10 0 60981 64800.00000 0 -19341890.223 4908697.747 15897753.918 10 0 60981 65700.00000 0 -21148613.446 4817828.000 13427175.529 10 0 60981 66600.00000 0 -22637578.163 4870604.668 10695841.052 10 0 60981 67500.00000 0 -23770117.837 5021874.193 7756697.257 10 0 60981 68400.00000 0 -24519264.875 5220676.187 4666781.314 10 0 60981 69300.00000 0 -24870782.124 5412620.688 1486116.254 10 0 60981 70200.00000 0 -24823678.726 5542421.051 -1723456.559 10 0 60981 71100.00000 0 -24390187.562 5556474.618 -4899485.011 10 0 60981 72000.00000 0 -23595204.233 5405380.722 -7980129.642 10 0 60981 72900.00000 0 -22475210.519 5046287.805 -10905378.077 10 0 60981 73800.00000 0 -21076727.264 4444968.433 -13618225.628 10 0 60981 74700.00000 0 -19454361.907 3577532.354 -16065797.747 10 0 60981 75600.00000 0 -17668533.224 2431703.143 -18200391.277 10 0 60981 76500.00000 0 -15782969.672 1007602.563 -19980413.179 10 0 60981 77400.00000 0 -13862087.361 -681992.074 -21371197.676 10 0 60981 78300.00000 0 -11968358.597 -2611929.832 -22345685.401 10 0 60981 79200.00000 0 -10159782.113 -4745496.534 -22884951.193 10 0 60981 80100.00000 0 -8487561.508 -7035720.302 -22978570.342 10 0 60981 81000.00000 0 -6994089.217 -9427117.940 -22624816.490 10 0 60981 81900.00000 0 -5711320.036 -11857809.245 -21830687.842 10 0 60981 82800.00000 0 -4659601.493 -14261910.796 -20611761.774 10 0 60981 83700.00000 0 -3847008.735 -16572109.128 -18991881.331 10 0 60981 84600.00000 0 -3269210.141 -18722305.765 -17002680.377 10 0 60981 85500.00000 0 -2909867.343 -20650223.652 -14682957.308 10 0 60982 0.00000 0 -2741550.770 -22299866.218 -12077910.425 10 0 60982 900.00000 0 -2727130.070 -23623727.581 -9238248.974 10 0 60982 1800.00000 0 -2821579.033 -24584660.056 -6219201.313 10 0 60982 2700.00000 0 -2974116.975 -25157324.712 -3079435.373 10 0 60982 3600.00000 0 -3130595.045 -25329163.195 120083.735 10 0 60982 4500.00000 0 -3236025.585 -25100852.341 3317277.743 10 0 60982 5400.00000 0 -3237147.089 -24486223.757 6450157.466 10 0 60982 6300.00000 0 -3084916.180 -23511653.051 9458019.973 10 0 60982 7200.00000 0 -2736821.402 -22214945.432 12282617.672 10 0 60982 8100.00000 0 -2158921.414 -20643765.178 14869277.189 10 0 60982 9000.00000 0 -1327521.965 -18853675.146 17167947.136 10 0 60982 9900.00000 0 -230421.244 -16905868.348 19134155.455 10 0 60982 10800.00000 0 1132328.786 -14864685.908 20729858.949 10 0 60982 11700.00000 0 2748177.362 -12795024.135 21924169.779 10 0 60982 12600.00000 0 4592357.289 -10759737.700 22693945.931 10 0 60982 13500.00000 0 6628684.090 -8817145.676 23024235.202 10 0 60982 14400.00000 0 8810840.270 -7018742.840 22908564.723 10 0 60982 15300.00000 0 11084093.046 -5407210.154 22349070.623 10 0 60982 16200.00000 0 13387376.149 -4014805.998 21356465.114 10 0 60982 17100.00000 0 15655651.184 -2862204.317 19949840.979 10 0 60982 18000.00000 0 17822452.190 -1957827.505 18156316.171 10 0 60982 18900.00000 0 19822509.102 -1297701.713 16010524.073 10 0 60982 19800.00000 0 21594341.964 -865840.645 13553957.747 10 0 60982 20700.00000 0 23082718.272 -635142.087 10834179.389 10 0 60982 21600.00000 0 24240870.861 -568759.858 7903908.928 10 0 60982 22500.00000 0 25032383.062 -621893.788 4820008.367 10 0 60982 23400.00000 0 25432661.213 -743922.383 1642380.913 10 0 60982 24300.00000 0 25429931.534 -880787.923 -1567193.939 10 0 60982 25200.00000 0 25025718.118 -977532.595 -4746266.502 10 0 60982 26100.00000 0 24234780.656 -980877.348 -7832940.026 10 0 60982 27000.00000 0 23084513.373 -841732.861 -10767086.065 10 0 60982 27900.00000 0 21613829.704 -517534.663 -13491527.244 10 0 60982 28800.00000 0 19871579.206 25698.406 -15953163.078 10 0 60982 29700.00000 0 17914563.299 811671.397 -18104015.698 10 0 60982 30600.00000 0 15805233.537 1852559.601 -19902174.094 10 0 60982 31500.00000 0 13609169.670 3148248.671 -21312617.632 10 0 60982 32400.00000 0 11392443.977 4686102.032 -22307902.344 10 0 60982 33300.00000 0 9218982.971 6441266.489 -22868696.419 10 0 60982 34200.00000 0 7148037.454 8377503.994 -22984154.542 10 0 60982 35100.00000 0 5231866.906 10448515.113 -22652124.136 10 0 60982 36000.00000 0 3513734.803 12599698.935 -21879179.966 10 0 60982 36900.00000 0 2026298.015 14770275.634 -20680487.041 10 0 60982 37800.00000 0 790456.407 16895682.744 -19079495.147 10 0 60982 38700.00000 0 -185290.784 18910144.685 -17107471.625 10 0 60982 39600.00000 0 -904956.828 20749307.876 -14802882.159 10 0 60982 40500.00000 0 -1384645.126 22352831.205 -12210632.295 10 0 60982 41400.00000 0 -1651612.623 23666823.596 -9381185.018 10 0 60982 42300.00000 0 -1742860.636 24646026.979 -6369572.202 10 0 60982 43200.00000 0 -1703314.474 25255653.887 -3234319.671 10 0 60982 44100.00000 0 -1583670.392 25472803.493 -36307.204 10 0 60982 45000.00000 0 -1438002.049 25287397.746 3162413.960 10 0 60982 45900.00000 0 -1321228.532 24702599.474 6299822.984 10 0 60982 46800.00000 0 -1286551.375 23734695.996 9315127.351 10 0 60982 47700.00000 0 -1382968.948 22412454.110 12149933.818 10 0 60982 48600.00000 0 -1652972.998 20775974.213 14749370.227 10 0 60982 49500.00000 0 -2130524.149 18875091.863 17063137.215 10 0 60982 50400.00000 0 -2839391.328 16767393.665 19046470.411 10 0 60982 51300.00000 0 -3791924.730 14515929.868 20660995.630 10 0 60982 52200.00000 0 -4988313.944 12186718.236 21875461.709 10 0 60982 53100.00000 0 -6416362.760 9846142.016 22666337.906 10 0 60982 54000.00000 0 -8051790.922 7558348.823 23018265.225 10 0 60982 54900.00000 0 -9859051.547 5382757.054 22924353.604 10 0 60982 55800.00000 0 -11792631.696 3371771.937 22386319.403 10 0 60982 56700.00000 0 -13798783.796 1568804.738 21414460.391 10 0 60982 57600.00000 0 -15817617.768 6676.281 20027468.042 10 0 60982 58500.00000 0 -17785468.614 -1293529.565 18252079.754 10 0 60982 59400.00000 0 -19637442.458 -2323115.195 16122576.410 10 0 60982 60300.00000 0 -21310036.189 -3085894.486 13680133.473 10 0 60982 61200.00000 0 -22743722.046 -3597788.566 10972036.709 10 0 60982 62100.00000 0 -23885389.346 -3885908.919 8050776.345 10 0 60982 63000.00000 0 -24690540.751 -3987166.080 4973036.115 10 0 60982 63900.00000 0 -25125150.122 -3946462.360 1798596.150 10 0 60982 64800.00000 0 -25167102.694 -3814544.935 -1410829.247 10 0 60982 65700.00000 0 -24807155.532 -3645610.390 -4592796.163 10 0 60982 66600.00000 0 -24049376.278 -3494762.833 -7685353.861 10 0 60982 67500.00000 0 -22911040.265 -3415434.331 -10628261.041 10 0 60982 68400.00000 0 -21421989.054 -3456878.347 -13364170.719 10 0 60982 69300.00000 0 -19623476.552 -3661844.061 -15839759.321 10 0 60982 70200.00000 0 -17566550.716 -4064531.771 -18006776.816 10 0 60982 71100.00000 0 -15310038.761 -4688917.684 -19822996.355 10 0 60982 72000.00000 0 -12918220.671 -5547520.536 -21253044.099 10 0 60982 72900.00000 0 -10458288.999 -6640663.500 -22269092.561 10 0 60982 73800.00000 0 -7997701.811 -7956263.644 -22851403.770 10 0 60982 74700.00000 0 -5601539.990 -9470158.599 -22988711.721 10 0 60982 75600.00000 0 -3329979.564 -11146957.172 -22678436.990 10 0 60982 76500.00000 0 -1235984.511 -12941378.359 -21926729.802 10 0 60982 77400.00000 0 636684.087 -14800022.509 -20748341.308 10 0 60982 78300.00000 0 2255060.394 -16663500.130 -19166326.239 10 0 60982 79200.00000 0 3598102.582 -18468828.807 -17211583.372 10 0 60982 80100.00000 0 4657312.609 -20151997.427 -14922243.467 10 0 60982 81000.00000 0 5436823.230 -21650590.021 -12342917.219 10 0 60982 81900.00000 0 5952950.938 -22906359.130 -9523818.467 10 0 60982 82800.00000 0 6233235.996 -23867640.873 -6519780.364 10 0 60982 83700.00000 0 6315012.212 -24491510.735 -3389184.154 10 0 60982 84600.00000 0 6243568.743 -24745590.148 -192821.830 10 0 60982 85500.00000 0 6069983.119 -24609428.759 3007284.821 10 0 60983 0.00000 0 5848718.208 -24075405.288 6149085.390 10 0 60983 900.00000 0 5635085.238 -23149109.671 9171700.614 10 0 60983 1800.00000 0 5482680.676 -21849192.057 12016593.469 10 0 60983 2700.00000 0 5440904.676 -20206684.660 14628695.019 10 0 60983 3600.00000 0 5552665.790 -18263825.777 16957459.738 10 0 60983 4500.00000 0 5852368.080 -16072434.890 18957832.517 10 0 60983 5400.00000 0 6364264.940 -13691906.293 20591109.476 10 0 60983 6300.00000 0 7101248.536 -11186904.019 21825677.137 10 0 60983 7200.00000 0 8064125.694 -8624852.863 22637616.716 10 0 60983 8100.00000 0 9241410.986 -6073328.323 23011162.820 10 0 60983 9000.00000 0 10609646.548 -3597452.274 22939008.309 10 0 60983 9900.00000 0 12134236.483 -1257400.800 22422449.661 10 0 60983 10800.00000 0 13770762.618 893873.899 21471369.879 10 0 60983 11700.00000 0 15466728.515 2812614.340 20104058.631 10 0 60983 12600.00000 0 17163660.758 4465840.463 18346872.120 10 0 60983 13500.00000 0 18799481.525 5832479.094 16233737.929 10 0 60983 14400.00000 0 20311054.766 6903993.500 13805512.958 10 0 60983 15300.00000 0 21636800.427 7684486.811 11109205.371 10 0 60983 16200.00000 0 22719267.766 8190274.914 8197074.285 10 0 60983 17100.00000 0 23507559.671 8448946.497 5125623.493 10 0 60983 18000.00000 0 23959505.540 8497949.609 1954508.100 10 0 60983 18900.00000 0 24043490.175 8382764.276 -1254625.000 10 0 60983 19800.00000 0 23739860.233 8154738.513 -4439340.097 10 0 60983 20700.00000 0 23041847.257 7868679.778 -7537635.046 10 0 60983 21600.00000 0 21955966.693 7580304.672 -10489158.331 10 0 60983 22500.00000 0 20501874.448 7343656.050 -13236395.966 10 0 60983 23400.00000 0 18711685.736 7208598.399 -15725803.811 10 0 60983 24300.00000 0 16628783.869 7218499.106 -17908862.049 10 0 60983 25200.00000 0 14306168.518 7408195.359 -19743030.205 10 0 60983 26100.00000 0 11804412.556 7802334.157 -21192583.271 10 0 60983 27000.00000 0 9189313.264 8414156.909 -22229312.096 10 0 60983 27900.00000 0 6529336.491 9244780.910 -22833074.204 10 0 60983 28800.00000 0 3892960.991 10283008.734 -22992184.311 10 0 60983 29700.00000 0 1346034.116 11505673.960 -22703637.271 10 0 60983 30600.00000 0 -1050750.799 12878508.775 -21973159.547 10 0 60983 31500.00000 0 -3244150.383 14357496.815 -20815088.814 10 0 60983 32400.00000 0 -5190345.492 15890654.050 -19252084.686 10 0 60983 33300.00000 0 -6856512.568 17420162.475 -17314676.875 10 0 60983 34200.00000 0 -8221928.064 18884766.470 -15040660.256 10 0 60983 35100.00000 0 -9278561.727 20222330.792 -12474349.295 10 0 60983 36000.00000 0 -10031136.174 21372452.411 -9665706.914 10 0 60983 36900.00000 0 -10496652.624 22279016.318 -6669365.420 10 0 60983 37800.00000 0 -10703405.116 22892587.952 -3543559.045 10 0 60983 38700.00000 0 -10689526.879 23172541.956 -348989.308 10 0 60983 39600.00000 0 -10501132.059 23088838.247 2852354.352 10 0 60983 40500.00000 0 -10190132.633 22623371.359 5998395.550 10 0 60983 41400.00000 0 -9811823.738 21770837.010 9028170.286 10 0 60983 42300.00000 0 -9422339.851 20539080.163 11883001.487 10 0 60983 43200.00000 0 -9076089.325 18948910.445 14507626.559 10 0 60983 44100.00000 0 -8823275.200 17033392.884 16851256.819 10 0 60983 45000.00000 0 -8707606.266 14836643.551 18868549.253 10 0 60983 45900.00000 0 -8764294.105 12412179.929 20520472.886 10 0 60983 46800.00000 0 -9018419.754 9820893.892 21775054.221 10 0 60983 47700.00000 0 -9483738.185 7128730.481 22607988.393 10 0 60983 48600.00000 0 -10161970.670 4404167.437 23003105.170 10 0 60983 49500.00000 0 -11042615.042 1715598.407 22952681.448 10 0 60983 50400.00000 0 -12103282.518 -871273.348 22457594.464 10 0 60983 51300.00000 0 -13310548.199 -3295924.353 21527312.581 10 0 60983 52200.00000 0 -14621281.145 -5505281.727 20179723.277 10 0 60983 53100.00000 0 -15984400.055 -7455682.335 18440800.634 10 0 60983 54000.00000 0 -17342982.784 -9114439.783 16344117.516 10 0 60983 54900.00000 0 -18636642.868 -10460954.593 13930210.360 10 0 60983 55800.00000 0 -19804074.639 -11487321.451 11245807.425 10 0 60983 56700.00000 0 -20785660.836 -12198408.111 8342934.050 10 0 60983 57600.00000 0 -21526033.338 -12611402.445 5277911.149 10 0 60983 58500.00000 0 -21976478.859 -12754846.413 2110265.651 10 0 60983 59400.00000 0 -22097087.355 -12667197.460 -1098426.250 10 0 60983 60300.00000 0 -21858551.164 -12394978.015 -4285740.430 10 0 60983 61200.00000 0 -21243537.280 -11990591.586 -7389626.749 10 0 60983 62100.00000 0 -20247573.002 -11509898.399 -10349626.871 10 0 60983 63000.00000 0 -18879405.740 -11009654.136 -13108063.116 10 0 60983 63900.00000 0 -17160820.135 -10544921.369 -15611173.919 10 0 60983 64800.00000 0 -15125918.803 -10166564.659 -17810172.541 10 0 60983 65700.00000 0 -12819895.926 -9918936.726 -19662207.372 10 0 60983 66600.00000 0 -10297354.578 -9837854.910 -21131204.226 10 0 60983 67500.00000 0 -7620238.064 -9948954.602 -22188573.710 10 0 60983 68400.00000 0 -4855461.862 -10266490.092 -22813769.626 10 0 60983 69300.00000 0 -2072345.368 -10792634.022 -22994687.569 10 0 60983 70200.00000 0 660049.161 -11517305.225 -22727896.227 10 0 60983 71100.00000 0 3275559.365 -12418532.138 -22018697.330 10 0 60983 72000.00000 0 5713437.190 -13463336.199 -20881013.661 10 0 60983 72900.00000 0 7920630.610 -14609097.457 -19337107.947 10 0 60983 73800.00000 0 9853738.417 -15805344.342 -17417138.766 10 0 60983 74700.00000 0 11480557.775 -16995891.533 -15158562.816 10 0 60983 75600.00000 0 12781161.605 -18121235.341 -12605395.827 10 0 60983 76500.00000 0 13748462.788 -19121105.216 -9807347.142 10 0 60983 77400.00000 0 14388243.770 -19937063.589 -6818845.422 10 0 60983 78300.00000 0 14718652.709 -20515044.405 -3697974.985 10 0 60983 79200.00000 0 14769189.614 -20807723.492 -505343.926 10 0 60983 80100.00000 0 14579227.214 -20776621.179 2697093.601 10 0 60983 81000.00000 0 14196130.608 -20393849.088 5847237.822 10 0 60983 81900.00000 0 13673056.271 -19643428.047 8884043.266 10 0 60983 82800.00000 0 13066524.040 -18522122.247 11748695.014 10 0 60983 83700.00000 0 12433864.777 -17039754.969 14385739.019 10 0 60983 84600.00000 0 11830651.173 -15218992.800 16744145.324 10 0 60983 85500.00000 0 11308219.399 -13094607.240 18778284.519 99